Simultaneous Nadir Overpasses (SNOs) Predictions

Prediction of SNOs between AQUA and GOES-15 Satellite Orbit:

Table of predicted SNOs for the next 14.0 days since TLE Epoch: 8/19/2017
Index Date Time (AQUA) AQUA Lat,Lon GOES-15 Lat,Lon Distance(km) Time Diff (sec)
1 08/19/2017 10:25:23 -0.18,-132.55 0.35,-135.02 280.77 80
2 08/19/2017 22:46:47 -0.90,-137.74 -0.36,-135.03 307.88 80
3 08/21/2017 22:34:35 -0.29,-134.78 -0.35,-135.05 30.54 80
4 08/23/2017 22:22:23 0.32,-131.82 -0.35,-135.07 368.93 80
5 08/24/2017 10:43:39 0.77,-136.98 0.35,-135.08 216.85 80
6 08/26/2017 10:31:28 0.10,-134.03 0.35,-135.09 120.84 80
7 08/26/2017 22:52:51 -1.24,-139.21 -0.35,-135.08 470.01 80
8 08/28/2017 10:19:16 -0.52,-131.07 0.35,-135.10 457.97 80
9 08/28/2017 22:40:39 -0.61,-136.25 -0.35,-135.09 132.78 80
10 08/30/2017 22:28:27 0.01,-133.29 -0.35,-135.09 203.80 80
11 08/31/2017 10:49:44 1.03,-138.47 0.34,-135.11 380.78 80




NCC Satellite Simultaneous Nadir Overpasses (SNOs) Prediction Service
